Flag for U.S.A. Weather past 2 weeks in Lewiston, Idaho, U.S.A.

Now
86 °F

Sunny.


Feels Like: 83 °F
Forecast: 62 / 88 °F
Wind: 16 mph from Northwest

Location: Lewiston-Nez Perce County Airport

Current Time: Aug 28, 2014 at 4:49:47 PM

Latest Report: Aug 28, 2014 at 3:56 PM


Visibility: 10 mi

Pressure: 29.90 "Hg

Humidity: 24%

Dew point: 45 °F

Location of LewistonLocation

Historic Weather in Lewiston — Graph

°F

Lewiston temperature yesterday

Maximum temperature yesterday: 94 °F (at 4:56 PM)
Minimum temperature yesterday: 60 °F (at 4:56 AM)
Average temperature yesterday: 76 °F

Past Weeks' High & Low Weather Summary

 TemperatureHumidityPressure
High95 °F (Aug 18, 3:56 PM)93% (Aug 15, 1:56 AM)30.11 "Hg (Aug 15, 1:56 AM)
Low55 °F (Aug 25, 5:56 AM)15% (Aug 18, 3:56 PM)29.59 "Hg (Aug 19, 4:56 PM)
Average73 °F50%29.92 "Hg
* Reported Aug 13 3:56 PM — Aug 28 3:56 PM, Lewiston, Weather by CustomWeather, © 2014

Note: Actual official high and low records may vary slightly from our data, if they occured in-between our weather recording intervals... More about our weather records

Advertising

Lewiston weather history for previous 24 hours

 ConditionsComfort  
Time TempWeatherWind HumidityBarometerVisibility
3:56 PM
Aug 28
86 °FSunny.16 mph24%29.90 "Hg10 mi
2:56 PM88 °FSunny.16 mph23%29.90 "Hg10 mi
1:56 PM90 °FSunny.10 mph24%29.91 "Hg10 mi
12:56 PM85 °FSunny.5 mph29%29.93 "Hg10 mi
11:56 AM84 °FSunny.8 mph32%29.95 "Hg10 mi
10:56 AM83 °FSunny.6 mph34%29.96 "Hg10 mi
9:56 AM78 °FSunny.5 mph42%29.97 "Hg10 mi
8:56 AM74 °FSunny.3 mph46%29.98 "Hg10 mi
7:56 AM68 °FSunny.3 mph53%29.98 "Hg10 mi
6:56 AM67 °FClear.5 mph53%29.97 "Hg10 mi
5:56 AM65 °FClear.5 mph56%29.95 "Hg10 mi
4:56 AM68 °FClear.No wind51%29.94 "Hg10 mi
3:56 AM67 °FClear.No wind53%29.93 "Hg10 mi
2:56 AM69 °FClear.No wind49%29.91 "Hg10 mi
1:56 AM72 °FClear.No wind43%29.91 "Hg10 mi
12:56 AM73 °FClear.No wind41%29.89 "Hg10 mi
11:56 PM
Aug 27
73 °FClear.5 mph41%29.89 "Hg10 mi
10:56 PM76 °FClear.3 mph37%29.89 "Hg10 mi
9:56 PM78 °FClear.5 mph33%29.89 "Hg10 mi
8:56 PM80 °FClear.6 mph32%29.89 "Hg10 mi
7:56 PM86 °FSunny.6 mph25%29.88 "Hg10 mi
6:56 PM91 °FSunny.6 mph21%29.88 "Hg10 mi
5:56 PM92 °FSunny.5 mph19%29.89 "Hg10 mi
4:56 PM94 °FSunny.No wind18%29.90 "Hg10 mi
Weather by CustomWeather, © 2014

See weather overviewHow to use our weather pages